Location: Mentone
(34.5413°N, 85.5351°W)
Time: 13:44:56
(UTC-05:00)

ADEOS Rocket - Visible Passes

Search period start: 26 March 2017 00:00
Search period end: 05 April 2017 00:00
Orbit: 859 x 1307 km, 98.7° (Epoch: 24 March)

Date Brightness Start Highest point End Pass type
(mag) Time Alt. Az. Time Alt. Az. Time Alt. Az.
26 Mar 4.4 03:34:56 10° N 03:37:12 25° N 03:37:12 25° N visible
27 Mar 5.1 02:46:13 10° NNE 02:47:39 18° NE 02:47:39 18° NE visible
27 Mar 4.5 04:32:35 10° NNW 04:34:37 17° NW 04:34:37 17° NW visible
28 Mar 4.3 03:42:34 10° N 03:45:05 27° N 03:45:05 27° N visible
29 Mar 4.9 02:53:40 10° NNE 02:55:33 21° NE 02:55:33 21° NE visible
29 Mar 4.5 04:40:32 10° NNW 04:42:30 16° NW 04:42:30 16° NW visible
30 Mar 4.1 03:50:14 10° N 03:52:59 29° NNW 03:52:59 29° NNW visible
31 Mar 4.6 03:01:08 10° NNE 03:03:27 26° NNE 03:03:27 26° NNE visible
31 Mar 4.6 04:48:36 10° NNW 04:50:25 14° NW 04:50:25 14° NW visible
01 Apr 5.5 02:13:20 10° NE 02:13:56 12° NE 02:13:56 12° NE visible
01 Apr 4.0 03:57:55 10° N 04:00:53 29° NNW 04:00:53 29° NNW visible
02 Apr 4.3 03:08:39 10° NNE 03:11:22 30° NNE 03:11:22 30° NNE visible
02 Apr 4.7 04:56:51 10° NW 04:58:20 12° NW 04:58:20 12° NW visible
03 Apr 5.3 02:20:31 10° NE 02:21:51 16° NE 02:21:51 16° NE visible
03 Apr 4.0 04:05:38 10° N 04:08:49 28° NW 04:08:49 28° NW visible
04 Apr 4.0 03:16:11 10° NNE 03:19:17 36° NNE 03:19:17 36° NNE visible
04 Apr 4.8 05:05:47 10° NW 05:06:15 10° WNW 05:06:15 10° WNW visible
